H1 CPF 2 NER 2025 10 4 9 277 01 glonass129 H2 1106402 9129 37868 2025 10 4 0 0 0 2025 10 7 23 45 0 900 1 1 0 0 0 1 H9 10 0 60952 0.00000 0 8049222.684 24087191.837 2736818.733 10 0 60952 900.00000 0 8002257.134 23532828.199 5900713.691 10 0 60952 1800.00000 0 7739933.920 22644352.248 8950501.417 10 0 60952 2700.00000 0 7225247.895 21466038.199 11827262.268 10 0 60952 3600.00000 0 6431355.359 20050671.143 14475441.840 10 0 60952 4500.00000 0 5342948.515 18457325.467 16843905.806 10 0 60952 5400.00000 0 3957151.653 16748904.007 18886909.815 10 0 60952 6300.00000 0 2283901.459 14989539.421 20564967.476 10 0 60952 7200.00000 0 345794.859 13241964.581 21845601.233 10 0 60952 8100.00000 0 -1822590.707 11564959.737 22703962.995 10 0 60952 9000.00000 0 -4175878.343 10010980.956 23123313.479 10 0 60952 9900.00000 0 -6659527.574 8624067.034 23095351.441 10 0 60952 10800.00000 0 -9211860.033 7438110.855 22620386.283 10 0 60952 11700.00000 0 -11766393.922 6475566.597 21707349.929 10 0 60952 12600.00000 0 -14254393.164 5746646.696 20373646.391 10 0 60952 13500.00000 0 -16607527.888 5249042.667 18644840.108 10 0 60952 14400.00000 0 -18760537.495 4968182.550 16554186.908 10 0 60952 15300.00000 0 -20653786.492 4878015.623 14142014.368 10 0 60952 16200.00000 0 -22235606.813 4942292.977 11454961.337 10 0 60952 17100.00000 0 -23464328.174 5116291.496 8545089.371 10 0 60952 18000.00000 0 -24309910.209 5348909.620 5468881.847 10 0 60952 18900.00000 0 -24755106.146 5585046.844 2286149.329 10 0 60952 19800.00000 0 -24796107.125 5768166.080 -941137.796 10 0 60952 20700.00000 0 -24442638.000 5842929.354 -4150066.084 10 0 60952 21600.00000 0 -23717498.926 5757793.356 -7278020.421 10 0 60952 22500.00000 0 -22655570.821 5467452.509 -10263924.129 10 0 60952 23400.00000 0 -21302326.193 4935023.184 -13049451.591 10 0 60952 24300.00000 0 -19711908.321 4133873.670 -15580187.585 10 0 60952 25200.00000 0 -17944860.712 3049019.614 -17806708.635 10 0 60952 26100.00000 0 -16065603.924 1678023.529 -19685563.439 10 0 60952 27000.00000 0 -14139767.784 31358.475 -21180131.835 10 0 60952 27900.00000 0 -12231492.967 -1867780.668 -22261344.648 10 0 60952 28800.00000 0 -10400816.965 -3984210.972 -22908250.006 10 0 60952 29700.00000 0 -8701255.296 -6272009.417 -23108415.245 10 0 60952 30600.00000 0 -7177679.862 -8676222.170 -22858157.247 10 0 60952 31500.00000 0 -5864583.115 -11134962.725 -22162597.742 10 0 60952 32400.00000 0 -4784799.660 -13581810.116 -21035543.831 10 0 60952 33300.00000 0 -3948736.952 -15948406.130 -19499197.560 10 0 60952 34200.00000 0 -3354144.892 -18167142.303 -17583701.770 10 0 60952 35100.00000 0 -2986431.002 -20173824.303 -15326532.605 10 0 60952 36000.00000 0 -2819504.863 -21910202.778 -12771751.923 10 0 60952 36900.00000 0 -2817113.261 -23326265.755 -9969135.426 10 0 60952 37800.00000 0 -2934607.122 -24382198.256 -6973194.487 10 0 60952 38700.00000 0 -3121063.598 -25049929.096 -3842111.428 10 0 60952 39600.00000 0 -3321672.255 -25314202.282 -636609.397 10 0 60952 40500.00000 0 -3480283.864 -25173130.568 2581221.113 10 0 60952 41400.00000 0 -3542014.067 -24638210.194 5749116.624 10 0 60952 42300.00000 0 -3455792.527 -23733798.148 8805833.346 10 0 60952 43200.00000 0 -3176750.933 -22496075.342 11692316.055 10 0 60952 44100.00000 0 -2668350.322 -20971539.918 14352821.873 10 0 60952 45000.00000 0 -1904159.311 -19215093.874 16735978.719 10 0 60952 45900.00000 0 -869209.313 -17287802.425 18795759.702 10 0 60952 46800.00000 0 439129.743 -15254418.401 20492356.360 10 0 60952 47700.00000 0 2010790.124 -13180773.288 21792935.492 10 0 60952 48600.00000 0 3823179.443 -11131141.550 22672266.352 10 0 60952 49500.00000 0 5841880.725 -9165685.846 23113207.046 10 0 60952 50400.00000 0 8021852.532 -7338087.500 23107041.227 10 0 60952 51300.00000 0 10309082.017 -5693459.096 22653658.423 10 0 60952 52200.00000 0 12642625.182 -4266624.958 21761573.798 10 0 60952 53100.00000 0 14956952.532 -3080840.530 20447785.616 10 0 60952 54000.00000 0 17184505.289 -2147004.134 18737471.362 10 0 60952 54900.00000 0 19258357.986 -1463394.633 16663526.231 10 0 60952 55800.00000 0 21114877.940 -1015947.057 14265950.599 10 0 60952 56700.00000 0 22696271.252 -779055.951 11591096.117 10 0 60952 57600.00000 0 23952908.651 -716874.012 8690783.015 10 0 60952 58500.00000 0 24845332.702 -785052.476 5621304.268 10 0 60952 59400.00000 0 25345860.463 -932850.452 2442335.035 10 0 60952 60300.00000 0 25439712.116 -1105524.136 -784231.660 10 0 60952 61200.00000 0 25125615.806 -1246894.069 -3995499.844 10 0 60952 62100.00000 0 24415861.064 -1301980.300 -7128811.325 10 0 60952 63000.00000 0 23335796.851 -1219591.680 -10122986.430 10 0 60952 63900.00000 0 21922794.241 -954756.978 -12919538.525 10 0 60952 64800.00000 0 20224717.089 -470891.995 -15463836.499 10 0 60952 65700.00000 0 18297965.412 258391.924 -17706190.456 10 0 60952 66600.00000 0 16205174.857 1247917.043 -19602837.571 10 0 60952 67500.00000 0 14012670.445 2500066.138 -21116807.434 10 0 60952 68400.00000 0 11787783.217 4004445.469 -22218649.080 10 0 60952 69300.00000 0 9596144.036 5738098.921 -22887005.100 10 0 60952 70200.00000 0 7499069.291 7666264.490 -23109021.806 10 0 60952 71100.00000 0 5551148.753 9743640.991 -22880588.051 10 0 60952 72000.00000 0 3798136.603 11916111.047 -22206399.103 10 0 60952 72900.00000 0 2275233.123 14122847.146 -21099845.628 10 0 60952 73800.00000 0 1005827.342 16298711.523 -19582731.431 10 0 60952 74700.00000 0 751.002 18376848.512 -17684827.036 10 0 60952 75600.00000 0 -741927.799 20291360.355 -15443269.327 10 0 60952 76500.00000 0 -1236565.831 21979954.418 -12901820.365 10 0 60952 77400.00000 0 -1509078.345 23386451.425 -10110001.093 10 0 60952 78300.00000 0 -1595584.624 24463050.737 -7122117.799 10 0 60952 79200.00000 0 -1540625.185 25172259.218 -3996201.045 10 0 60952 80100.00000 0 -1395027.881 25488404.780 -792878.149 10 0 60952 81000.00000 0 -1213514.268 25398673.182 2425798.775 10 0 60952 81900.00000 0 -1052147.917 24903626.760 5597546.714 10 0 60952 82800.00000 0 -965732.248 24017185.188 8661045.051 10 0 60952 83700.00000 0 -1005267.071 22766070.623 11557106.094 10 0 60952 84600.00000 0 -1215570.020 21188741.368 14229801.492 10 0 60952 85500.00000 0 -1633161.878 19333858.984 16627524.283 10 0 60953 0.00000 0 -2284503.579 17258352.634 18703967.545 10 0 60953 900.00000 0 -3184658.571 15025159.220 20419003.593 10 0 60953 1800.00000 0 -4336435.479 12700734.662 21739445.605 10 0 60953 2700.00000 0 -5730048.536 10352434.148 22639682.103 10 0 60953 3600.00000 0 -7343310.367 8045870.775 23102170.170 10 0 60953 4500.00000 0 -9142351.242 5842359.020 23117779.529 10 0 60953 5400.00000 0 -11082837.231 3796547.467 22685980.542 10 0 60953 6300.00000 0 -13111639.386 1954337.498 21814871.798 10 0 60953 7200.00000 0 -15168887.417 351173.538 20521045.431 10 0 60953 8100.00000 0 -17190325.172 -989224.440 18829291.012 10 0 60953 9000.00000 0 -19109872.244 -2055633.086 16772141.557 10 0 60953 9900.00000 0 -20862286.626 -2849569.550 14389268.171 10 0 60953 10800.00000 0 -22385818.208 -3384995.760 11726732.767 10 0 60953 11700.00000 0 -23624742.213 -3687494.285 8836111.340 10 0 60953 12600.00000 0 -24531665.616 -3792949.270 5773503.273 10 0 60953 13500.00000 0 -25069508.208 -3745787.184 2598444.977 10 0 60953 14400.00000 0 -25213072.897 -3596851.342 -627251.322 10 0 60953 15300.00000 0 -24950136.698 -3401000.412 -3840710.557 10 0 60953 16200.00000 0 -24282013.993 -3214533.620 -6979234.840 10 0 60953 17100.00000 0 -23223566.099 -3092553.468 -9981544.784 10 0 60953 18000.00000 0 -21802655.024 -3086380.021 -12788995.866 10 0 60953 18900.00000 0 -20059063.398 -3241128.954 -15346743.999 10 0 60953 19800.00000 0 -18042925.753 -3593558.712 -17604835.476 10 0 60953 20700.00000 0 -15812737.609 -4170280.495 -19519198.160 10 0 60953 21600.00000 0 -13433027.045 -4986409.010 -21052513.115 10 0 60953 22500.00000 0 -10971787.884 -6044712.664 -22174948.740 10 0 60953 23400.00000 0 -8497783.666 -7335300.114 -22864742.638 10 0 60953 24300.00000 0 -6077836.678 -8835856.767 -23108620.016 10 0 60953 25200.00000 0 -3774216.420 -10512421.054 -22902041.055 10 0 60953 26100.00000 0 -1642237.114 -12320667.145 -22249273.400 10 0 60953 27000.00000 0 271835.772 -14207639.190 -21163289.690 10 0 60953 27900.00000 0 1932483.659 -16113863.146 -19665493.570 10 0 60953 28800.00000 0 3316168.625 -17975746.480 -17785281.076 10 0 60953 29700.00000 0 4412053.835 -19728164.252 -15559447.501 10 0 60953 30600.00000 0 5222183.592 -21307122.685 -13031452.693 10 0 60953 31500.00000 0 5761118.804 -22652388.497 -10250560.392 10 0 60953 32400.00000 0 6055046.541 -23709974.259 -7270869.400 10 0 60953 33300.00000 0 6140404.216 -24434376.587 -4150256.185 10 0 60953 34200.00000 0 6062078.868 -24790474.674 -949249.995 10 0 60953 35100.00000 0 5871259.372 -24755011.274 2270137.551 10 0 60953 36000.00000 0 5623033.317 -24317595.878 5445605.917 10 0 60953 36900.00000 0 5373830.302 -23481189.741 8515759.552 10 0 60953 37800.00000 0 5178819.224 -22262053.955 11421280.075 10 0 60953 38700.00000 0 5089368.435 -20689163.734 14106055.349 10 0 60953 39600.00000 0 5150674.599 -18803113.827 16518245.081 10 0 60953 40500.00000 0 5399658.757 -16654560.528 18611264.093 10 0 60953 41400.00000 0 5863216.914 -14302264.304 20344665.990 10 0 60953 42300.00000 0 6556897.829 -11810813.020 21684911.815 10 0 60953 43200.00000 0 7484063.303 -9248118.426 22606010.244 10 0 60953 44100.00000 0 8635566.640 -6682787.532 23090018.001 10 0 60953 45000.00000 0 9989964.034 -4181475.628 23127391.331 10 0 60953 45900.00000 0 11514252.003 -1806328.452 22717181.671 10 0 60953 46800.00000 0 13165102.639 387382.289 21867071.071 10 0 60953 47700.00000 0 14890547.904 2353333.288 20593245.383 10 0 60953 48600.00000 0 16632045.591 4055848.510 18920105.914 10 0 60953 49500.00000 0 18326843.320 5471152.070 16879822.963 10 0 60953 50400.00000 0 19910543.898 6588122.423 14511737.603 10 0 60953 51300.00000 0 21319766.127 7408515.481 11861621.009 10 0 60953 52200.00000 0 22494790.117 7946646.213 8980803.662 10 0 60953 53100.00000 0 23382075.731 8228540.840 5925189.783 10 0 60953 54000.00000 0 23936547.092 8290594.324 2754175.153 10 0 60953 54900.00000 0 24123545.070 8177789.176 -470510.972 10 0 60953 55800.00000 0 23920363.051 7941550.772 -3686016.841 10 0 60953 56700.00000 0 23317298.603 7637330.591 -6829607.469 10 0 60953 57600.00000 0 22318174.080 7322021.004 -9839906.444 10 0 60953 58500.00000 0 20940302.015 7051313.104 -12658114.050 10 0 60953 59400.00000 0 19213895.092 6877111.874 -15229175.854 10 0 60953 60300.00000 0 17180944.599 6845120.773 -17502876.861 10 0 60953 61200.00000 0 14893614.358 6992700.562 -19434837.992 10 0 60953 62100.00000 0 12412218.113 7347095.214 -20987393.991 10 0 60953 63000.00000 0 9802866.226 7924101.696 -22130334.647 10 0 60953 63900.00000 0 7134881.642 8727240.967 -22841494.396 10 0 60953 64800.00000 0 4478094.613 9747465.677 -23107178.908 10 0 60953 65700.00000 0 1900130.369 10963416.755 -22922420.931 10 0 60953 66600.00000 0 -536196.249 12342217.364 -22291061.351 10 0 60953 67500.00000 0 -2775270.438 13840769.756 -21225655.203 10 0 60953 68400.00000 0 -4770752.375 15407499.152 -19747205.897 10 0 60953 69300.00000 0 -6487252.295 16984469.997 -17884734.427 10 0 60953 70200.00000 0 -7901538.020 18509784.491 -15674693.463 10 0 60953 71100.00000 0 -9003227.307 19920161.753 -13160239.169 10 0 60953 72000.00000 0 -9794939.242 21153588.798 -10390376.236 10 0 60953 72900.00000 0 -10291901.771 22151932.044 -7418993.812 10 0 60953 73800.00000 0 -10521035.129 22863400.183 -4303811.851 10 0 60953 74700.00000 0 -10519552.640 23244755.986 -1105258.921 10 0 60953 75600.00000 0 -10333140.168 23263185.512 2114696.612 10 0 60953 76500.00000 0 -10013792.560 22897747.823 5293739.528 10 0 60953 77400.00000 0 -9617399.187 22140345.957 8370402.230 10 0 60953 78300.00000 0 -9201180.432 20996179.876 11285238.543 10 0 60953 79200.00000 0 -8821082.636 19483663.446 13981955.395 10 0 60953 80100.00000 0 -8529240.163 17633809.450 16408481.946 10 0 60953 81000.00000 0 -8371610.014 15489108.209 18517957.251 10 0 60953 81900.00000 0 -8385877.066 13101945.763 20269619.090 10 0 60953 82800.00000 0 -8599716.708 10532626.040 21629578.481 10 0 60953 83700.00000 0 -9029487.024 7847077.266 22571466.312 10 0 60953 84600.00000 0 -9679405.187 5114335.425 23076940.703 10 0 60953 85500.00000 0 -10541243.156 2403906.670 23136045.802 10 0 60954 0.00000 0 -11594556.611 -216884.292 22747415.124 10 0 60954 900.00000 0 -12807440.160 -2685453.543 21918314.571 10 0 60954 1800.00000 0 -14137778.239 -4946317.194 20664523.650 10 0 60954 2700.00000 0 -15534943.986 -6953158.447 19010054.770 10 0 60954 3600.00000 0 -16941876.342 -8670513.601 16986714.318 10 0 60954 4500.00000 0 -18297451.246 -10075008.091 14633511.605 10 0 60954 5400.00000 0 -19539049.244 -11156090.081 11995924.850 10 0 60954 6300.00000 0 -20605212.725 -11916229.889 9125036.397 10 0 60954 7200.00000 0 -21438281.167 -12370575.624 6076552.349 10 0 60954 8100.00000 0 -21986892.686 -12546078.334 2909724.656 10 0 60954 9000.00000 0 -22208244.834 -12480122.628 -313803.758 10 0 60954 9900.00000 0 -22070016.992 -12218720.150 -3531207.922 10 0 60954 10800.00000 0 -21551870.537 -11814342.484 -6679719.251 10 0 60954 11700.00000 0 -20646460.671 -11323486.074 -9697867.787 10 0 60954 12600.00000 0 -19359914.580 -10804073.809 -12526702.029 10 0 60954 13500.00000 0 -17711753.583 -10312805.375 -15110960.451 10 0 60954 14400.00000 0 -15734260.999 -9902570.914 -17400169.762 10 0 60954 15300.00000 0 -13471321.513 -9620039.958 -19349646.583 10 0 60954 16200.00000 0 -10976780.750 -9503529.833 -20921381.501 10 0 60954 17100.00000 0 -8312394.392 -9581245.540 -22084787.281 10 0 60954 18000.00000 0 -5545453.797 -9869966.700 -22817296.120 10 0 60954 18900.00000 0 -2746188.657 -10374237.594 -23104794.411 10 0 60954 19800.00000 0 14943.643 -11086094.362 -22941887.067 10 0 60954 20700.00000 0 2669967.862 -11985340.176 -22331987.206 10 0 60954 21600.00000 0 5155986.574 -13040355.585 -21287230.723 10 0 60954 22500.00000 0 7417553.663 -14209408.428 -19828218.835 10 0 60954 23400.00000 0 9408727.688 -15442406.523 -17983595.180 10 0 60954 24300.00000 0 11094721.168 -16683017.861 -15789467.213 10 0 60954 25200.00000 0 12453079.387 -17871067.744 -13288684.623 10 0 60954 26100.00000 0 13474342.346 -18945111.122 -10529990.116 10 0 60954 27000.00000 0 14162165.430 -19845071.418 -7567060.161 10 0 60954 27900.00000 0 14532897.066 -20514834.964 -4457455.162 10 0 60954 28800.00000 0 14614634.217 -20904692.418 -1261500.009 10 0 60954 29700.00000 0 14445798.147 -20973525.543 1958883.056 10 0 60954 30600.00000 0 14073292.445 -20690648.687 5141366.822 10 0 60954 31500.00000 0 13550322.209 -20037229.020 8224414.087 10 0 60954 32400.00000 0 12933966.775 -19007227.268 11148453.045 10 0 60954 33300.00000 0 12282607.983 -17607820.530 13857011.518 10 0 60954 34200.00000 0 11653321.390 -15859290.123 16297789.629 10 0 60954 35100.00000 0 11099338.852 -13794379.145 18423651.836 10 0 60954 36000.00000 0 10667687.571 -11457145.890 20193520.944 10 0 60954 36900.00000 0 10397103.244 -8901359.589 21573158.472 10 0 60954 37800.00000 0 10316303.566 -6188503.257 22535817.757 10 0 60954 38700.00000 0 10442693.740 -3385464.175 23062758.272 10 0 60954 39600.00000 0 10781558.039 -562005.168 23143611.774 10 0 60954 40500.00000 0 11325771.904 2211881.220 22776593.232 10 0 60954 41400.00000 0 12056047.927 4868628.583 21968551.831 10 0 60954 42300.00000 0 12941707.349 7345654.552 20734859.835 10 0 60954 43200.00000 0 13941947.097 9587716.222 19099139.739 10 0 60954 44100.00000 0 15007551.813 11548966.205 17092832.881 10 0 60954 45000.00000 0 16082981.406 13194623.926 14754615.535 10 0 60954 45900.00000 0 17108748.521 14502192.093 12129671.566 10 0 60954 46800.00000 0 18023987.294 15462166.540 9268833.623 10 0 60954 47700.00000 0 18769105.791 16078208.437 6227607.973 10 0 60954 48600.00000 0 19288409.962 16366770.318 3065100.850 10 0 60954 49500.00000 0 19532587.171 16356190.450 -157133.188 10 0 60954 50400.00000 0 19460942.348 16085292.960 -3376298.104 10 0 60954 51300.00000 0 19043289.790 15601552.576 -6529593.937 10 0 60954 52200.00000 0 18261417.742 14958902.006 -9555459.420 10 0 60954 53100.00000 0 17110061.071 14215275.829 -12394793.454 10 0 60954 54000.00000 0 15597338.363 13429996.488 -14992129.521 10 0 60954 54900.00000 0 13744632.938 12661115.118 -17296738.029 10 0 60954 55800.00000 0 11585921.375 11962821.985 -19263633.160 10 0 60954 56700.00000 0 9166577.130 11383038.229 -20854463.085 10 0 60954 57600.00000 0 6541699.436 10961292.551 -22038265.149 10 0 60954 58500.00000 0 3774038.165 10726973.889 -22792070.767 10 0 60954 59400.00000 0 931602.419 10698034.495 -23101348.303 10 0 60954 60300.00000 0 -1914946.109 10880198.105 -22960275.815 10 0 60954 61200.00000 0 -4695005.185 11266705.879 -22371839.283 10 0 60954 62100.00000 0 -7340735.726 11838609.536 -21347755.664 10 0 60954 63000.00000 0 -9789644.310 12565597.646 -19908223.709 10 0 60954 63900.00000 0 -11986937.344 13407318.345 -18081508.934 10 0 60954 64800.00000 0 -13887549.973 14315140.844 -15903372.363 10 0 60954 65700.00000 0 -15457767.016 15234279.766 -13416355.594 10 0 60954 66600.00000 0 -16676370.721 16106191.410 -10668937.411 10 0 60954 67500.00000 0 -17535270.317 16871140.048 -7714579.437 10 0 60954 68400.00000 0 -18039590.160 17470825.721 -4610680.198 10 0 60954 69300.00000 0 -18207215.931 17850962.949 -1417458.489 10 0 60954 70200.00000 0 -18067820.796 17963702.371 1803212.056 10 0 60954 71100.00000 0 -17661414.846 17769794.373 4988994.748 10 0 60954 72000.00000 0 -17036480.506 17240404.876 8078285.326 10 0 60954 72900.00000 0 -16247773.333 16358508.263 11011388.887 10 0 60954 73800.00000 0 -15353880.853 15119799.999 13731656.692 10 0 60954 74700.00000 0 -14414641.536 13533091.465 16186562.309 10 0 60954 75600.00000 0 -13488531.227 11620170.614 18328698.004 10 0 60954 76500.00000 0 -12630125.229 9415133.834 20116673.873 10 0 60954 77400.00000 0 -11887740.790 6963215.713 21515904.020 10 0 60954 78300.00000 0 -11301357.232 4319163.633 22499266.069 10 0 60954 79200.00000 0 -10900899.483 1545222.336 23047622.388 10 0 60954 80100.00000 0 -10704956.150 -1291190.538 23150193.544 10 0 60954 81000.00000 0 -10719985.623 -4120024.488 22804776.832 10 0 60954 81900.00000 0 -10940044.049 -6871249.252 22017805.036 10 0 60954 82800.00000 0 -11347047.808 -9477513.458 20804243.121 10 0 60954 83700.00000 0 -11911561.321 -11876700.495 19187323.139 10 0 60954 84600.00000 0 -12594079.299 -14014276.782 17198120.358 10 0 60954 85500.00000 0 -13346751.850 -15845335.294 14874976.562 10 0 60955 0.00000 0 -14115481.917 -17336248.898 12262779.628 10 0 60955 900.00000 0 -14842308.757 -18465864.420 9412109.806 10 0 60955 1800.00000 0 -15467976.857 -19226184.256 6378271.217 10 0 60955 2700.00000 0 -15934583.331 -19622508.122 3220221.608 10 0 60955 3600.00000 0 -16188190.099 -19673025.447 -575.786 10 0 60955 4500.00000 0 -16181289.145 -19407875.248 -3221356.962 10 0 60955 5400.00000 0 -15875014.201 -18867712.303 -6379293.791 10 0 60955 6300.00000 0 -15241002.510 -18101840.091 -9412736.969 10 0 60955 7200.00000 0 -14262824.958 -17165990.042 -12262439.097 10 0 60955 8100.00000 0 -12936921.322 -16119842.239 -14872731.903 10 0 60955 9000.00000 0 -11272998.665 -15024394.150 -17192632.587 10 0 60955 9900.00000 0 -9293874.153 -13939290.705 -19176855.726 10 0 60955 10800.00000 0 -7034767.747 -12920230.598 -20786709.525 10 0 60955 11700.00000 0 -4542073.900 -12016560.246 -21990857.869 10 0 60955 12600.00000 0 -1871663.997 -11269158.363 -22765932.769 10 0 60955 13500.00000 0 913208.794 -10708701.188 -23096985.313 10 0 60955 14400.00000 0 3744313.710 -10354381.564 -22977766.815 10 0 60955 15300.00000 0 6551054.211 -10213135.220 -22410835.623 10 0 60955 16200.00000 0 9263177.628 -10279405.516 -21407488.707 10 0 60955 17100.00000 0 11813469.207 -10535454.731 -19987520.803 10 0 60955 18000.00000 0 14140318.299 -10952206.639 -18178817.317 10 0 60955 18900.00000 0 16190050.403 -11490582.538 -16016790.452 10 0 60955 19800.00000 0 17918929.199 -12103272.261 -13543670.958 10 0 60955 20700.00000 0 19294746.955 -12736863.576 -10807670.628 10 0 60955 21600.00000 0 20297939.399 -13334238.694 -7862032.908 10 0 60955 22500.00000 0 20922181.277 -13837135.901 -4763990.926 10 0 60955 23400.00000 0 21174440.643 -14188767.880 -1573653.784 10 0 60955 24300.00000 0 21074492.463 -14336386.533 1647157.055 10 0 60955 25200.00000 0 20653914.541 -14233686.853 4836098.818 10 0 60955 26100.00000 0 19954609.851 -13842949.576 7931503.304 10 0 60955 27000.00000 0 19026918.708 -13136833.623 10873555.258 10 0 60955 27900.00000 0 17927400.581 -12099744.041 13605431.670 10 0 60955 28800.00000 0 16716378.472 -10728718.896 16074381.374 10 0 60955 29700.00000 0 15455348.016 -9033798.312 18232725.783 10 0 60955 30600.00000 0 14204358.495 -7037859.980 20038763.161 10 0 60955 31500.00000 0 13019473.753 -4775927.125 21457560.643 10 0 60955 32400.00000 0 11950417.458 -2293976.142 22461620.193 10 0 60955 33300.00000 0 11038499.517 352708.701 23031406.769 10 0 60955 34200.00000 0 10314909.045 3101567.834 23155729.125 10 0 60955 35100.00000 0 9799444.486 5885104.804 22831965.951 10 0 60955 36000.00000 0 9499733.863 8633436.582 22066132.447 10 0 60955 36900.00000 0 9410978.361 11276952.673 20872784.871 10 0 60955 37800.00000 0 9516231.168 13748975.051 19274763.216 10 0 60955 38700.00000 0 9787201.557 15988310.101 17302774.919 10 0 60955 39600.00000 0 10185552.371 17941587.301 14994825.371 10 0 60955 40500.00000 0 10664638.313 19565287.373 12395503.951 10 0 60955 41400.00000 0 11171613.486 20827374.594 9555137.333 10 0 60955 42300.00000 0 11649820.442 21708463.789 6528824.830 10 0 60955 43200.00000 0 12041360.272 22202471.485 3375373.420 10 0 60955 44100.00000 0 12289734.648 22316722.183 156152.680 10 0 60955 45000.00000 0 12342446.790 22071503.715 -3066107.749 10 0 60955 45900.00000 0 12153449.188 21499089.233 -6228553.839 10 0 60955 46800.00000 0 11685331.904 20642266.542 -9269450.415 10 0 60955 47700.00000 0 10911155.882 19552436.888 -12129405.776 10 0 60955 48600.00000 0 9815850.749 18287364.337 -14752551.720 10 0 60955 49500.00000 0 8397115.311 16908672.112 -17087653.855 10 0 60955 50400.00000 0 6665780.406 15479193.417 -19089128.595 10 0 60955 51300.00000 0 4645617.188 14060290.507 -20717945.450 10 0 60955 52200.00000 0 2372597.877 12709256.963 -21942395.954 10 0 60955 53100.00000 0 -106360.278 11476914.180 -22738713.653 10 0 60955 54000.00000 0 -2735114.848 10405504.329 -23091533.085 10 0 60955 54900.00000 0 -5450409.261 9526968.727 -22994179.288 10 0 60955 55800.00000 0 -8184285.787 8861683.600 -22448783.101 10 0 60955 56700.00000 0 -10866698.814 8417705.211 -21466221.221 10 0 60955 57600.00000 0 -13428218.689 8190554.205 -20065883.628 10 0 60955 58500.00000 0 -15802712.998 8163545.955 -18275274.422 10 0 60955 59400.00000 0 -17929893.710 8308650.368 -16129455.366 10 0 60955 60300.00000 0 -19757624.770 8587842.359 -13670344.399 10 0 60955 61200.00000 0 -21243895.249 8954883.600 -10945884.101 10 0 60955 62100.00000 0 -22358377.632 9357458.425 -8009097.362 10 0 60955 63000.00000 0 -23083508.553 9739572.220 -4917049.462 10 0 60955 63900.00000 0 -23415049.391 10044110.214 -1729737.330 10 0 60955 64800.00000 0 -23362105.996 10215448.372 1491072.200 10 0 60955 65700.00000 0 -22946609.240 10202006.540 4683032.716 10 0 60955 66600.00000 0 -22202280.310 9958636.882 7784414.475 10 0 60955 67500.00000 0 -21173125.727 9448747.996 10735284.236 10 0 60955 68400.00000 0 -19911526.013 8646076.406 13478647.033 10 0 60955 69300.00000 0 -18475998.317 7536031.927 15961529.185 10 0 60955 70200.00000 0 -16928726.083 6116561.048 18135983.332 10 0 60955 71100.00000 0 -15332957.937 4398492.231 19959997.794 10 0 60955 72000.00000 0 -13750382.941 2405348.131 21398294.371 10 0 60955 72900.00000 0 -12238589.941 172631.233 22423000.706 10 0 60955 73800.00000 0 -10848715.174 -2253389.276 23014185.352 10 0 60955 74700.00000 0 -9623374.620 -4817341.495 23160245.883 10 0 60955 75600.00000 0 -8594966.101 -7456799.426 22858142.659 10 0 60955 76500.00000 0 -7784411.268 -10104634.271 22113473.192 10 0 60955 77400.00000 0 -7200389.979 -12691573.716 20940384.549 10 0 60955 78300.00000 0 -6839099.639 -15148865.579 19361323.820 10 0 60955 79200.00000 0 -6684550.717 -17410937.149 17406629.405 10 0 60955 80100.00000 0 -6709387.565 -19417940.818 15113968.758 10 0 60955 81000.00000 0 -6876201.744 -21118080.419 12527631.165 10 0 60955 81900.00000 0 -7139284.196 -22469620.763 9697687.151 10 0 60955 82800.00000 0 -7446743.596 -23442495.245 6679029.142 10 0 60955 83700.00000 0 -7742902.145 -24019442.534 3530310.881 10 0 60955 84600.00000 0 -7970867.392 -24196622.729 312805.710 10 0 60955 85500.00000 0 -8075170.366 -23983685.158 -2910793.769 99